AKST,Max TemperatureF,Mean TemperatureF,Min TemperatureF,Max Dew PointF,MeanDew PointF,Min DewpointF,Max Humidity, Mean Humidity, Min Humidity, Max Sea Level PressureIn, Mean Sea Level PressureIn, Min Sea Level PressureIn, Max VisibilityMiles, Mean VisibilityMiles, Min VisibilityMiles, Max Wind SpeedMPH, Mean Wind SpeedMPH, Max Gust SpeedMPH,PrecipitationIn, CloudCover, Events, WindDirDegrees
2014-2-1,23,12,0,21,13,-4,100,89,72,30.59,30.42,30.31,10,6,1,17,7,,0.00,5,Snow,248
2014-2-2,23,13,1,23,13,-6,100,87,72,30.87,30.80,30.70,10,7,0,13,10,,0.00,7,Fog-Snow,274
2014-2-3,6,3,0,3,-3,-8,92,77,72,30.83,30.80,30.75,10,7,0,5,2,,0.00,4,Fog,199
2014-2-4,6,0,-4,1,-6,-11,92,76,66,30.67,30.61,30.57,10,8,1,13,8,,0.00,5,,83
2014-2-5,24,19,14,25,19,10,100,93,86,30.51,30.48,30.46,10,7,2,23,13,21,0.00,7,Snow,237
2014-2-6,23,13,3,21,6,-2,100,82,72,30.58,30.32,30.10,10,4,1,32,24,29,0.00,7,Snow,304
2014-2-7,8,2,-5,7,-5,-13,92,77,71,30.95,30.88,30.80,7,5,2,18,15,,0.00,7,Snow,301
2014-2-8,-9,-10,-11,-15,-18,-20,84,70,64,30.97,30.91,30.83,10,9,7,12,10,,0.00,6,,260
2014-2-9,0,-9,-20,-6,-15,-31,85,72,53,30.81,30.69,30.60,10,9,7,18,13,,0.00,5,Snow,325
2014-2-10,3,-8,-18,-2,-18,-27,84,70,58,30.66,30.34,30.03,10,9,2,23,9,,0.00,5,Snow,187
2014-2-11,3,-10,-22,1,-20,-36,92,67,47,30.13,30.09,30.02,7,5,2,23,18,,0.00,5,Snow,279
2014-2-12,-27,-32,-38,-33,-34,-35,75,75,75,30.01,29.99,29.97,10,10,4,10,8,,0.00,5,Snow,288
2014-2-13,-27,-30,-32,-31,-36,-42,83,70,51,30.02,30.01,30.00,10,10,7,12,10,,0.00,6,Snow,33
2014-2-14,-20,-22,-25,-26,-28,-31,83,77,76,30.02,30.00,30.00,10,8,4,14,10,,0.00,7,Snow,50
2014-2-15,-27,-30,-34,-33,-35,-38,83,75,68,30.02,29.95,29.87,10,9,4,14,11,,0.00,3,,47
2014-2-16,-23,-28,-34,-26,-32,-35,91,77,75,29.79,29.78,29.77,7,4,2,22,16,,0.00,6,Snow,44
2014-2-17,-23,-27,-34,-29,-33,-35,76,75,75,30.07,29.98,29.90,10,10,10,16,14,,0.00,3,,51
2014-2-18,-38,-42,-47,,,,,,,30.14,30.12,30.09,2,1,1,18,11,,0.00,3,,235
2014-2-19,-41,-45,-49,,,,,,,30.24,30.18,30.12,2,1,0,5,3,,0.00,1,Fog,140
2014-2-20,-40,-42,-45,,,,,,,30.38,30.35,30.31,10,4,2,8,7,,0.00,3,,237
2014-2-21,-29,-35,-41,-36,-36,-36,68,68,68,30.55,30.49,30.43,10,6,0,5,2,,0.00,1,Fog,190
2014-2-22,-23,-28,-34,-29,-33,-40,76,76,75,30.53,30.44,30.38,10,10,10,14,8,,0.00,0,,102
2014-2-23,-5,-10,-16,-9,-13,-20,84,82,77,30.35,30.25,30.14,10,4,1,28,22,36,0.00,3,Snow,85
2014-2-24,-11,-12,-14,-15,-16,-18,84,81,77,30.13,30.11,30.08,10,10,10,13,10,,0.00,1,,99
2014-2-25,8,-6,-20,5,-15,-26,92,81,76,30.09,30.00,29.97,10,10,10,24,9,32,0.00,2,Snow,180
2014-2-26,10,0,-11,7,-3,-15,92,86,77,30.38,30.34,30.28,10,6,0,16,11,,0.00,6,Fog-Snow,10
2014-2-27,-2,-6,-9,-6,-9,-13,85,84,77,30.23,30.13,30.04,0,0,0,28,25,33,0.00,,Fog-Snow,85
2014-2-28,15,8,1,12,1,-2,93,84,72,29.98,29.93,29.90,10,10,10,17,12,,0.00,2,,139